Regional Weather Roundup
Issued by NWS

Home | Current Version | Previous Version | Graphics & Text | Print | Product List | Glossary On
Versions: 1 2 3 4 5 6 7 8 9 10 11 12 13 14 15 16 17 18 19 20 21 22 23 24 25 26 27 28 29 30 31 32 33 34 35 36 37 38 39 40 41 42 43 44 45 46 47 48 49 50
000
ASUS43 KIND 192209
RWRIN

WEATHER ROUNDUP FOR INDIANA
NATIONAL WEATHER SERVICE INDIANAPOLIS IN
500 PM EST FRI DEC 19 2014

NOTE: "FAIR" INDICATES FEW OR NO CLOUDS BELOW 12,000 FEET WITH NO
SIGNIFICANT WEATHER AND/OR OBSTRUCTIONS TO VISIBILITY.

* - STATION DOES NOT REPORT WEATHER SUCH AS PRECIPITATION OR FOG.

+ - STATION NOT QUALITY CONTROLLED BY THE NATIONAL WEATHER SERVICE.
    USE DATA WITH CAUTION...ESPECIALLY DEWPOINT AND RELATIVE
    HUMIDITY OBSERVATIONS.

INZ001>003-010>013-019-020-192300-
NORTHWEST INDIANA

CITY           SKY/WX    TMP DP  RH WIND       PRES   REMARKS
GARY /AIRPORT/ CLOUDY    34  19  55 W5        30.31R WCI  30
KNOX *+        CLOUDY    31  24  76 W6        30.29R WCI  25
LA PORTE +     CLOUDY    33  28  83 W8        30.30R WCI  25
MICHIGAN CITY+ CLOUDY    32  23  69 W7        30.30R WCI  26
MONTICELLO +   CLOUDY    30  27  87 SW5       30.30R WCI  25
RENSSELAER +   CLOUDY    32  30  93 SW6       30.32R WCI  26
VALPARAISO     CLOUDY    31  24  75 W7        30.30R WCI  24

$$

LMZ046-743>745-192300-
SOUTHERN LAKE MICHIGAN

STATION/POSITION TIME  TEMP WIND        PRES
                       AIR  DIR/SP/G
                 (UTC) (F)  (DEG/KT/KT) (MB)

$$

INZ004-005-014>016-021>024-192300-
NORTH CENTRAL INDIANA

CITY           SKY/WX    TMP DP  RH WIND       PRES   REMARKS
ELKHART        CLOUDY    32  19  59 W5        30.27  WCI  27
GOSHEN         CLOUDY    32  22  66 NW6       30.26R WCI  26
LOGANSPORT +   CLOUDY    30  27  86 SW6       30.31R WCI  24
PERU/GRISSOM   CLOUDY    30  30 100 W7        30.30R WCI  23
ROCHESTER +    CLOUDY    34  30  86 W3        30.29R
SOUTH BEND     CLOUDY    33  26  75 W8        30.28R WCI  26
WARSAW +       CLOUDY    32  23  69 W3        30.27R

$$

INZ006>009-017-018-025>027-192300-
NORTHEAST INDIANA

CITY           SKY/WX    TMP DP  RH WIND       PRES   REMARKS
ANGOLA *+      MOCLDY    28  21  74 SE6       30.24S WCI  22
AUBURN +       PTCLDY    30  23  74 CALM      30.27R
FORT WAYNE     MOCLDY    31  24  75 E8        30.27R WCI  23
HUNTINGTON +   CLOUDY    31  25  79 W6        30.27R WCI  25

$$

INZ028-029-035-036-043>045-051>053-192300-
WEST CENTRAL INDIANA

CITY           SKY/WX    TMP DP  RH WIND       PRES   REMARKS
CRAWFORDSVL +  CLOUDY    27  21  80 W3        30.31
GREENCASTLE +  CLOUDY    30  21  69 CALM      30.31R
LAFAYETTE      CLOUDY    29  26  89 W3        30.32R
TERRE HAUTE    CLOUDY    33  23  66 E3        30.31R

$$

INZ030>032-037>040-046>048-054>057-064-065-192300-
CENTRAL INDIANA

CITY           SKY/WX    TMP DP  RH WIND       PRES   REMARKS
CP ATTERBURY + CLOUDY    32  25  74 MISG      30.32R
FRANKFORT +    MOCLDY    30  27  90 W3        30.31R FOG
INDIANAPOLIS   CLOUDY    29  22  75 W5        30.30R WCI  24
-EAGLE CREEK   CLOUDY    29  23  78 W3        30.29R
KOKOMO *+      CLOUDY    30  25  80 W6        30.30R WCI  24
MARION +       CLOUDY    30  27  90 W6        30.30R FOG     WCI  24
MT COMFORT *+  MOCLDY    30  18  59 CALM      30.30R
SHELBYVILLE    CLOUDY    31  23  72 NW3       30.30R
ZIONSVILLE +   CLOUDY    30  24  79 W3        30.30R HAZE

$$

INZ033-034-041-042-049-050-058-059-192300-
EAST CENTRAL INDIANA

CITY           SKY/WX    TMP DP  RH WIND       PRES   REMARKS
MUNCIE         CLOUDY    30  24  78 W6        30.27R WCI  24

$$

INZ060-061-067>069-081>083-085>088-192300-
SOUTHWEST INDIANA

CITY           SKY/WX    TMP DP  RH WIND       PRES   REMARKS
EVANSVILLE     PTCLDY    36  25  64 N6        30.30F
HUNTINGBURG *+ PTCLDY    34  21  60 N6        30.30F WCI  29
WASHINGTON +   PTCLDY    33  20  59 CALM      30.30S

$$

INZ062-063-066-070>080-084-089>092-192300-
SOUTH CENTRAL AND SOUTHEAST INDIANA

CITY           SKY/WX    TMP DP  RH WIND       PRES   REMARKS
BLOOMINGTON    CLOUDY    32  23  69 NE3       30.29R
SEYMOUR +      CLOUDY    32  23  69 CALM      30.32R

$$



USA.gov is the U.S. government's official web portal to all federal, state and local government web resources and services.